Retour au catalogue

STARLINK-34547

ActifCommunicationsVLEO
NORAD 64777·PAYLOAD·🇺🇸 United States

Lancé Jul 8, 2025 depuis Cape Canaveral Space Force Station

Loading…

Prochains Passages (prochaines 24 heures)

TLE

FraisSource: CelesTrak SupGP

Époque: Sep 15, 2026, 02:27 UTC

1 64777C 25147Y   26258.10256944 -.00020295  00000+0 -59983-3 0  2588
2 64777  53.1578  78.6871 0001188  85.0851 206.6874 15.34389777    12

Suivez STARLINK-34547 en temps réel avec AllMySat

Download on the App Store